Date,TemperatureHighF,TemperatureAvgF,TemperatureLowF,DewpointHighF,DewpointAvgF,DewpointLowF,HumidityHigh,HumidityAvg,HumidityLow,PressureMaxIn,PressureMinIn,WindSpeedMaxMPH,WindSpeedAvgMPH,GustSpeedMaxMPH,PrecipitationSumIn
2013-1-1,29,18,10,17,11,6,95,78,51,30.91,30.69,37,3,37,0.00
2013-1-2,40,21,7,27,14,3,91,76,43,30.93,30.78,8,2,8,0.03
2013-1-3,40,22,10,29,17,6,89,80,52,30.82,30.73,6,2,6,0.01
2013-1-4,38,26,14,32,22,12,93,87,74,30.83,30.69,5,2,5,0.01
2013-1-5,46,30,16,37,23,14,90,77,49,30.75,30.38,7,1,7,0.10
2013-1-6,32,29,28,28,23,12,95,78,43,30.54,30.36,28,4,29,0.00
2013-1-7,44,31,17,34,26,14,94,80,55,30.72,30.54,24,3,29,0.03
2013-1-8,39,30,23,36,28,22,96,92,83,30.74,30.63,5,2,5,0.01
2013-1-9,49,34,22,31,25,19,96,73,37,30.67,30.05,21,2,21,0.00
2013-1-10,28,20,14,20,13,8,93,75,55,30.48,30.14,27,3,28,0.00
2013-1-11,24,20,12,15,11,6,86,69,48,30.54,30.46,23,2,23,0.00
2013-1-12,25,11,-1,13,2,-4,86,70,37,30.72,30.53,13,2,22,0.00
2013-1-13,24,9,-3,10,0,-9,86,68,29,30.86,30.71,31,7,31,0.00
2013-1-14,33,16,-4,24,7,-8,89,68,41,31.04,30.85,25,6,27,0.00
2013-1-15,43,30,15,26,20,12,92,68,37,31.01,30.93,30,5,30,0.04
2013-1-16,44,28,17,28,17,12,85,65,32,31.03,30.88,15,2,15,0.00
2013-1-17,40,24,12,24,14,6,79,66,44,30.96,30.83,5,2,5,0.00
2013-1-18,37,23,11,28,16,6,80,72,55,30.92,30.81,4,2,5,0.00
2013-1-19,38,24,10,25,15,6,81,69,47,30.96,30.83,5,2,5,0.00
2013-1-20,38,24,11,28,15,5,79,69,45,30.94,30.82,5,2,5,0.00
2013-1-21,42,27,14,30,18,9,81,69,39,30.88,30.74,6,2,6,0.00
2013-1-22,44,29,17,34,23,13,85,78,52,30.80,30.60,5,2,5,0.00
2013-1-23,53,40,28,30,18,8,82,44,17,30.61,30.40,10,1,12,0.00
2013-1-24,40,36,32,38,34,30,98,95,83,30.57,30.40,4,0,4,0.16
2013-1-25,43,36,31,41,35,30,98,96,85,30.57,30.38,8,1,8,0.16
2013-1-26,46,35,29,34,28,23,98,78,51,30.39,30.16,12,1,13,0.01
2013-1-27,31,26,22,24,19,14,87,74,59,30.48,30.17,18,4,18,0.00
2013-1-28,33,24,14,25,17,10,91,75,57,30.68,30.47,18,3,19,0.00
2013-1-29,47,37,29,33,28,22,80,71,57,30.72,30.61,29,7,30,0.01
2013-1-30,48,33,26,35,28,22,92,82,59,30.78,30.69,13,2,14,0.00
2013-1-31,39,30,21,36,25,16,89,81,70,30.81,30.67,5,2,5,0.00